Cotes De Bretagne — FW3973 — position and weather

sailwx.info

Track history (hours):
 
Tides and Currents Weather Stations Pressure Air Temp Water Temp Dewpoint Dewpoint Depression Visibility Wind Speed Wind Dir Waves Ship Positions

Cotes De Bretagne

Last reported at 2014-Sep-02 23:33 UTC. Time now 2014-Sep-02 23:53 UTC.
Position N 47°44' W 003°21'.

Length 75 m; draft 2.5 m.

Type: Dredging. MMSI: 227003850.

Date/timePositionNaut miles runAvg speedWind from/ knotsBaromVisibWave heightAir tempDewpointWater temp
2014-Sep-02 23:33N 47°44' W 003°21'0 0.0
2014-Sep-02 22:33N 47°44' W 003°21'1 1.4
2014-Sep-02 21:33N 47°45' W 003°19'0 0.0
2014-Sep-02 20:33N 47°45' W 003°19'0 0.2
2014-Sep-02 19:34N 47°45' W 003°19'1 1.3
2014-Sep-02 18:33N 47°44' W 003°21'0 0.0
2014-Sep-02 17:33N 47°44' W 003°21'0 0.0
2014-Sep-02 16:33N 47°44' W 003°21'0 0.0
2014-Sep-02 15:33N 47°44' W 003°21'0 0.0
2014-Sep-02 14:33N 47°44' W 003°21'0 0.0
2014-Sep-02 13:33N 47°44' W 003°21'0 0.0
2014-Sep-02 12:33N 47°44' W 003°21'0 0.0
2014-Sep-02 11:33N 47°44' W 003°21'0 0.0
2014-Sep-02 10:33N 47°44' W 003°21'0 0.0
2014-Sep-02 09:33N 47°44' W 003°21'0 0.0
2014-Sep-02 08:33N 47°44' W 003°21'0 0.0
2014-Sep-02 07:33N 47°44' W 003°21'0 0.0
2014-Sep-02 06:33N 47°44' W 003°21'0 0.0
2014-Sep-02 05:33N 47°44' W 003°21'0 0.0
2014-Sep-02 04:33N 47°44' W 003°21'0 0.0
2014-Sep-02 03:33N 47°44' W 003°21'0 0.0
2014-Sep-02 02:33N 47°44' W 003°21'0 0.0
2014-Sep-02 01:33N 47°44' W 003°21'0 0.0
2014-Sep-02 00:33N 47°44' W 003°21'0 0.0
2014-Sep-01 23:33N 47°44' W 003°21'0 0.0
2014-Sep-01 22:33N 47°44' W 003°21'0 0.0
2014-Sep-01 21:33N 47°44' W 003°21'0 0.0
2014-Sep-01 20:33N 47°44' W 003°21'0 0.0
2014-Sep-01 19:33N 47°44' W 003°21'0 0.0
2014-Sep-01 18:33N 47°44' W 003°21'0 0.0
2014-Sep-01 17:33N 47°44' W 003°21'0 0.0
2014-Sep-01 16:33N 47°44' W 003°21'4 3.5
2014-Sep-01 15:33N 47°41' W 003°24'2 1.5
2014-Sep-01 14:33N 47°40' W 003°25'0 0.0
2014-Sep-01 13:33N 47°40' W 003°25'6 6.0
2014-Sep-01 12:33N 47°35' W 003°19'56 9.2
2014-Sep-01 06:29N 46°53' W 002°25'8 8.8
2014-Sep-01 05:33N 46°47' W 002°17'9 9.1
2014-Sep-01 04:33N 46°40' W 002°09'9 9.4
2014-Sep-01 03:33N 46°32' W 002°02'9 9.3
2014-Sep-01 02:33N 46°24' W 001°54'9 9.1
2014-Sep-01 01:33N 46°16' W 001°47'9 8.8
2014-Sep-01 00:33N 46°09' W 001°39'5 5.1
2014-Aug-31 23:33N 46°05' W 001°36'0 0.1
2014-Aug-31 22:33N 46°05' W 001°36'3 2.8
2014-Aug-31 21:20N 46°07' W 001°39'911.5
2014-Aug-31 20:33N 46°15' W 001°46'1111.3
2014-Aug-31 19:33N 46°24' W 001°55'1111.2
2014-Aug-31 18:33N 46°34' W 002°04'6011.1
2014-Aug-31 13:05N 47°20' W 003°01'2810.8
2014-Aug-31 10:28N 47°36' W 003°35'1010.9
2014-Aug-31 09:33N 47°43' W 003°47'19 9.5
2014-Aug-31 07:33N 47°55' W 004°09'31 1.7
2014-Aug-30 13:20N 47°35' W 003°33'25 1.9
2014-Aug-30 00:07N 47°21' W 003°02'2710.5
2014-Aug-29 21:33N 47°36' W 003°35'30 6.1
2014-Aug-29 16:33N 47°58' W 004°06'6 5.9
2014-Aug-29 15:33N 47°52' W 004°07'26 8.4
2014-Aug-29 12:24N 47°36' W 003°36'27 9.1
2014-Aug-29 09:29N 47°21' W 003°03'0 0.0
2014-Aug-28 23:34N 47°22' W 003°03'2210.2
2014-Aug-28 21:23N 47°34' W 003°31'910.5
2014-Aug-28 20:33N 47°39' W 003°41'7 1.0
2014-Aug-28 13:33N 47°43' W 003°50'11 8.8
2014-Aug-28 12:19N 47°37' W 003°36'26 9.2
2014-Aug-28 09:29N 47°22' W 003°05'5 0.5
2014-Aug-27 23:26N 47°19' W 002°58'29 9.9
2014-Aug-27 20:33N 47°35' W 003°33'2110.5
2014-Aug-27 18:33N 47°47' W 003°59'9 9.4
2014-Aug-27 17:33N 47°54' W 004°09'5 2.3
2014-Aug-27 15:33N 47°58' W 004°06'5 5.5
2014-Aug-27 14:33N 47°53' W 004°07'3 3.0
2014-Aug-27 13:33N 47°50' W 004°06'18 9.1
2014-Aug-27 11:33N 47°40' W 003°43'10 9.7
2014-Aug-27 10:33N 47°34' W 003°32'9 9.2
2014-Aug-27 09:34N 47°28' W 003°21'1310.1
2014-Aug-27 08:13N 47°21' W 003°04'3 0.3
2014-Aug-26 22:32N 47°20' W 003°00'5110.3
2014-Aug-26 17:33N 47°49' W 004°03'10 0.9
2014-Aug-26 06:33N 47°58' W 004°06'5 0.3
2014-Aug-25 14:33N 47°53' W 004°07'27 8.4
2014-Aug-25 11:18N 47°37' W 003°35'26 1.9
2014-Aug-24 21:33N 47°22' W 003°04'2310.5
2014-Aug-24 19:24N 47°34' W 003°32'3010.5
2014-Aug-24 16:34N 47°52' W 004°07'6 6.1
2014-Aug-24 15:33N 47°58' W 004°06'3 1.5
2014-Aug-24 13:33N 47°56' W 004°08'5 5.3
2014-Aug-24 12:33N 47°50' W 004°07'0 0.0
2014-Aug-24 03:33N 47°50' W 004°06'0 0.0
2014-Aug-23 23:33N 47°50' W 004°06'  
Track history (hours):
 
Tides and Currents Weather Stations Pressure Air Temp Water Temp Dewpoint Dewpoint Depression Visibility Wind Speed Wind Dir Waves Ship Positions

Cotes De Bretagne

Last reported at 2014-Sep-02 23:33 UTC. Time now 2014-Sep-02 23:53 UTC.
Position N 47°44' W 003°21'.

Length 75 m; draft 2.5 m.

Type: Dredging. MMSI: 227003850.

Date/timePositionNaut miles runAvg speedWind from/ knotsBaromVisibWave heightAir tempDewpointWater temp
2014-Sep-02 23:33N 47°44' W 003°21'0 0.0
2014-Sep-02 22:33N 47°44' W 003°21'1 1.4
2014-Sep-02 21:33N 47°45' W 003°19'0 0.0
2014-Sep-02 20:33N 47°45' W 003°19'0 0.2
2014-Sep-02 19:34N 47°45' W 003°19'1 1.3
2014-Sep-02 18:33N 47°44' W 003°21'0 0.0
2014-Sep-02 17:33N 47°44' W 003°21'0 0.0
2014-Sep-02 16:33N 47°44' W 003°21'0 0.0
2014-Sep-02 15:33N 47°44' W 003°21'0 0.0
2014-Sep-02 14:33N 47°44' W 003°21'0 0.0
2014-Sep-02 13:33N 47°44' W 003°21'0 0.0
2014-Sep-02 12:33N 47°44' W 003°21'0 0.0
2014-Sep-02 11:33N 47°44' W 003°21'0 0.0
2014-Sep-02 10:33N 47°44' W 003°21'0 0.0
2014-Sep-02 09:33N 47°44' W 003°21'0 0.0
2014-Sep-02 08:33N 47°44' W 003°21'0 0.0
2014-Sep-02 07:33N 47°44' W 003°21'0 0.0
2014-Sep-02 06:33N 47°44' W 003°21'0 0.0
2014-Sep-02 05:33N 47°44' W 003°21'0 0.0
2014-Sep-02 04:33N 47°44' W 003°21'0 0.0
2014-Sep-02 03:33N 47°44' W 003°21'0 0.0
2014-Sep-02 02:33N 47°44' W 003°21'0 0.0
2014-Sep-02 01:33N 47°44' W 003°21'0 0.0
2014-Sep-02 00:33N 47°44' W 003°21'0 0.0
2014-Sep-01 23:33N 47°44' W 003°21'0 0.0
2014-Sep-01 22:33N 47°44' W 003°21'0 0.0
2014-Sep-01 21:33N 47°44' W 003°21'0 0.0
2014-Sep-01 20:33N 47°44' W 003°21'0 0.0
2014-Sep-01 19:33N 47°44' W 003°21'0 0.0
2014-Sep-01 18:33N 47°44' W 003°21'0 0.0
2014-Sep-01 17:33N 47°44' W 003°21'0 0.0
2014-Sep-01 16:33N 47°44' W 003°21'4 3.5
2014-Sep-01 15:33N 47°41' W 003°24'2 1.5
2014-Sep-01 14:33N 47°40' W 003°25'0 0.0
2014-Sep-01 13:33N 47°40' W 003°25'6 6.0
2014-Sep-01 12:33N 47°35' W 003°19'56 9.2
2014-Sep-01 06:29N 46°53' W 002°25'8 8.8
2014-Sep-01 05:33N 46°47' W 002°17'9 9.1
2014-Sep-01 04:33N 46°40' W 002°09'9 9.4
2014-Sep-01 03:33N 46°32' W 002°02'9 9.3
2014-Sep-01 02:33N 46°24' W 001°54'9 9.1
2014-Sep-01 01:33N 46°16' W 001°47'9 8.8
2014-Sep-01 00:33N 46°09' W 001°39'5 5.1
2014-Aug-31 23:33N 46°05' W 001°36'0 0.1
2014-Aug-31 22:33N 46°05' W 001°36'3 2.8
2014-Aug-31 21:20N 46°07' W 001°39'911.5
2014-Aug-31 20:33N 46°15' W 001°46'1111.3
2014-Aug-31 19:33N 46°24' W 001°55'1111.2
2014-Aug-31 18:33N 46°34' W 002°04'6011.1
2014-Aug-31 13:05N 47°20' W 003°01'2810.8
2014-Aug-31 10:28N 47°36' W 003°35'1010.9
2014-Aug-31 09:33N 47°43' W 003°47'19 9.5
2014-Aug-31 07:33N 47°55' W 004°09'31 1.7
2014-Aug-30 13:20N 47°35' W 003°33'25 1.9
2014-Aug-30 00:07N 47°21' W 003°02'2710.5
2014-Aug-29 21:33N 47°36' W 003°35'30 6.1
2014-Aug-29 16:33N 47°58' W 004°06'6 5.9
2014-Aug-29 15:33N 47°52' W 004°07'26 8.4
2014-Aug-29 12:24N 47°36' W 003°36'27 9.1
2014-Aug-29 09:29N 47°21' W 003°03'0 0.0
2014-Aug-28 23:34N 47°22' W 003°03'2210.2
2014-Aug-28 21:23N 47°34' W 003°31'910.5
2014-Aug-28 20:33N 47°39' W 003°41'7 1.0
2014-Aug-28 13:33N 47°43' W 003°50'11 8.8
2014-Aug-28 12:19N 47°37' W 003°36'26 9.2
2014-Aug-28 09:29N 47°22' W 003°05'5 0.5
2014-Aug-27 23:26N 47°19' W 002°58'29 9.9
2014-Aug-27 20:33N 47°35' W 003°33'2110.5
2014-Aug-27 18:33N 47°47' W 003°59'9 9.4
2014-Aug-27 17:33N 47°54' W 004°09'5 2.3
2014-Aug-27 15:33N 47°58' W 004°06'5 5.5
2014-Aug-27 14:33N 47°53' W 004°07'3 3.0
2014-Aug-27 13:33N 47°50' W 004°06'18 9.1
2014-Aug-27 11:33N 47°40' W 003°43'10 9.7
2014-Aug-27 10:33N 47°34' W 003°32'9 9.2
2014-Aug-27 09:34N 47°28' W 003°21'1310.1
2014-Aug-27 08:13N 47°21' W 003°04'3 0.3
2014-Aug-26 22:32N 47°20' W 003°00'5110.3
2014-Aug-26 17:33N 47°49' W 004°03'10 0.9
2014-Aug-26 06:33N 47°58' W 004°06'5 0.3
2014-Aug-25 14:33N 47°53' W 004°07'27 8.4
2014-Aug-25 11:18N 47°37' W 003°35'26 1.9
2014-Aug-24 21:33N 47°22' W 003°04'2310.5
2014-Aug-24 19:24N 47°34' W 003°32'3010.5
2014-Aug-24 16:34N 47°52' W 004°07'6 6.1
2014-Aug-24 15:33N 47°58' W 004°06'3 1.5
2014-Aug-24 13:33N 47°56' W 004°08'5 5.3
2014-Aug-24 12:33N 47°50' W 004°07'0 0.0
2014-Aug-24 03:33N 47°50' W 004°06'0 0.0
2014-Aug-23 23:33N 47°50' W 004°06'  

Dump ship's entire track history